Location: Bakhuizen
(52.8696°N, 5.4575°E)
Time: 20:34:30
(UTC+00:00)

Cosmos 2084 - Pass Details

Date: 11 May 2021
Orbit: 541 x 640 km, 62.8° (Epoch: 21 June)

Event Time Altitude Azimuth Distance (km) Brightness Sun altitude
Rises 21:40:47 0° 240° (WSW) 2,728 6.9 -14.9°
Reaches altitude 10° 21:42:59 10° 245° (WSW) 1,848 6.0 -15.0°
Maximum altitude 21:47:06 57° 325° (NW) 680 4.1 -15.3°
Drops below altitude 10° 21:51:21 10° 44° (NE) 1,914 6.3 -15.6°
Sets 21:53:40 0° 49° (NE) 2,836 7.2 -15.7°
